Other Public Products
Issued by NWS Grand Forks, ND

Home | Current Version | Previous Version | Graphics & Text | Print | Product List | Glossary On
Versions: 1 2 3 4 5 6 7 8 9 10 11 12 13 14 15 16 17 18 19 20 21 22 23 24 25 26 27 28 29 30 31 32 33 34 35 36 37 38 39 40 41 42 43 44 45 46 47 48 49 50
000
FPUS83 KFGF 230931
OPUFGF
PRAIRIE TO PINES WEATHER ROUNDUP
NATIONAL WEATHER SERVICE EASTERN NORTH DAKOTA/GRAND FORKS ND
400 AM CDT SAT MAY 23 2015

 **SATELLITE DATA USED TO AUGMENT SKY COVER AT AUTOMATED STATIONS**
 *****  WEATHER ACROSS EASTERN NORTH DAKOTA  *****

CITY           SKY/WX    TMP DP  RH WIND       PRES   REMARKS
GRAND FORKS    CLEAR     46  40  79 S7        30.13S
GRAND FORKS AF CLEAR     51  40  65 SE3       30.13S
GRAND CITY NWS   N/A     48 N/A N/A S5          N/A
BUXTON           N/A     52  44  74 SE7         N/A
DEVILS LAKE    CLEAR     54  37  54 CALM      30.12S
FARGO          CLEAR     53  44  71 S9        30.15S
WAHPETON ARPT  SUNNY     50  39  66 SW6       30.19R
$$

 *****  WEATHER ACROSS CENTRAL AND WESTERN NORTH DAKOTA  *****

CITY           SKY/WX    TMP DP  RH WIND       PRES   REMARKS
JAMESTOWN      MOCLDY    53  43  68 SW9       30.15R
BISMARCK       PTCLDY    45  40  82 SE6       30.16R
MINOT          CLOUDY    57  39  51 SW9       30.10S
MINOT AFB      CLOUDY    58  41  53 W9        30.09S
GARRISON         N/A     46  40  79 NE3       30.12S
WILLISTON      CLEAR     50  38  63 CALM      30.10S
DICKINSON      PTCLDY    40  35  83 E9        30.08S
HETTINGER      PTCLDY    42  38  85 E8        30.10S
$$

 *****  OTHER OBSERVATIONS NORTHEAST NORTH DAKOTA  *****

CITY           SKY/WX    TMP DP  RH WIND       PRES   REMARKS
WALHALLA       FAIR      57  34  41 SW7       30.11S
LANGDON        FAIR      45  36  70 S9        30.13S
CAVALIER       FAIR      52  39  62 SW6       30.12R
GRAFTON        FAIR      48  45  87 SE5       30.13S
CANDO          FAIR      48  37  66 SW5       30.13S
FORT TOTTEN      N/A     54  34  46 SE6       29.95S
ROLLA          FAIR      48  36  61 SW7       30.13S
RUGBY          NOT AVBL
 ***** THE ABOVE OBSERVATIONS ARE NON NWS ARE NOT QUALITY
        CONTROLLED AND MAY MIS-REPORT RAIN FOR SNOW...
$$

 *****  OTHER OBSERVATIONS SOUTHEAST NORTH DAKOTA *****

CITY           SKY/WX    TMP DP  RH WIND       PRES   REMARKS
COOPERSTOWN    NOT AVBL
VALLEY CITY    PTSUNNY   52  46  82 SW12      30.16R
OAKES            N/A     48  48 100 SW7       30.18F
GWINNER        NOT AVBL
SHEYENNE NWR     N/A     51  45  79 SW5       29.95S
BUFFALO        NOT AVBL
WYNDMERE         N/A     52  45  76 SW7         N/A
 ***** THE ABOVE OBSERVATIONS ARE NON NWS ARE NOT QUALITY
       CONTROLLED AND MAY MIS-REPORT RAIN FOR SNOW...
$$

  *****  WEATHER ACROSS NORTHERN MINNESOTA  *****

CITY           SKY/WX    TMP DP  RH WIND       PRES   REMARKS
FLAG ISLAND    PTCLDY    61  41  48 W13       30.08S
WARROAD        PTCLDY    55  43  62 SW5       30.13S
ROSEAU         PTCLDY    55  43  62 SW6       30.13S
HALLOCK        CLEAR     48  43  81 SE9       30.12S
THF RVR FALLS  CLEAR     54  37  54 S6        30.16R
HALSTAD          N/A     46  39  76 S7          N/A
FOSSTON        CLEAR     48  37  66 S7        30.18S
BAUDETTE       CLEAR     53  39  59 CALM      30.12S
WASKISH        CLEAR     54  43  66 CALM      30.16S
CROOKSTON      CLEAR     46  39  76 S6        30.16R
$$
  *****  WEATHER ACROSS CENTRAL AND WEST MINNESOTA  *****

CITY           SKY/WX    TMP DP  RH WIND       PRES   REMARKS
BEMIDJI        CLEAR     43  38  83 SW3       30.18R
PARK RAPIDS    CLEAR     47  39  74 CALM      30.19R
WADENA         CLEAR     50  37  62 S5        30.19S
DETROIT LAKES  CLEAR     48  43  81 S5        30.19S
MOORHEAD       CLEAR     52  43  71 S7        30.17S
FERGUS FALLS   CLEAR     52  41  66 CALM      30.21R
ELBOW LAKE     FAIR      49  44  83 S5        30.20S
MORRIS MN      CLEAR     48  45  87 CALM      30.20S
STAPLES        FAIR      43  41  93 CALM      30.20S
WHEATON        CLEAR     45  39  81 CALM      30.22R
$$
  *****  WEATHER ELSEWHERE ACROSS MINNESOTA  *****

CITY           SKY/WX    TMP DP  RH WIND       PRES   REMARKS
DULUTH         CLEAR     53  36  52 W8        30.20R
INTRNTL FALLS  CLEAR     47  38  71 SW5       30.13S
ELY            CLEAR     50  36  57 CALM      30.16S
CLOQUET        CLEAR     54  34  47 SW8       30.21R
BRAINERD       CLEAR     43  41  93 CALM      30.21R
HIBBING        CLEAR     38  34  85 CALM      30.18R
ALEXANDRIA     CLEAR     50  43  77 SW6       30.22R
SAINT CLOUD    CLEAR     44  42  93 CALM      30.21S
MINNEAPOLIS    PTCLDY    58  37  45 CALM      30.22R
$$

  *****  WEATHER ACROSS SOUTH DAKOTA  *****

CITY           SKY/WX    TMP DP  RH WIND       PRES   REMARKS
SIOUX FALLS    CLOUDY    57  45  64 SE8       30.19S
BROOKINGS      CLOUDY    52  45  76 E3        30.22S
WATERTOWN      PTCLDY    49  43  80 CALM      30.21R
HURON          CLOUDY    50  46  86 E5        30.19S
SISSETON         N/A     53  41  63 W3        30.18R
ABERDEEN       PTCLDY    42  39  89 SE5       30.19S
MITCHELL       LGT RAIN  53  48  83 SE5       30.19F
PIERRE         CLOUDY    50  44  80 SE10      30.12S
MOBRIDGE       PTCLDY    47  43  86 E10       30.12S
RAPID CITY     CLOUDY    45  43  93 SE6       30.06R
$$

  *****  SOME WEATHER IN NEARBY STATES *****

CITY           SKY/WX    TMP DP  RH WIND       PRES   REMARKS
GLASGOW MT     MOCLDY    56  42  59 E12       30.03R
GREAT FALLS MT PTCLDY    52  43  71 E8        29.99R
CHEYENNE WY    CLOUDY    43  41  93 S13       30.05S
SCOTTSBLUFF NE CLOUDY    46  45  96 E6        30.05F
OMAHA NE       CLOUDY    59  50  72 SE8       30.19F
DES MOINES IA  CLOUDY    58  49  72 SE7       30.24R
DAVENPORT IA   CLOUDY    57  43  59 SE7       30.25R
CHICAGO IL     MOCLDY    50  36  58 S5        30.29S
EAU CLAIRE WI  CLEAR     43  39  86 CALM      30.23S
LA CROSSE WI   FAIR      50  43  77 E9        30.24R
$$

  *****  SOME NATIONAL WEATHER *****

CITY           SKY/WX    TMP DP  RH WIND       PRES   REMARKS
LA GUARDIA NY  CLEAR     52  28  39 NW15      30.29R
RALEIGH NC     PTCLDY    51  48  89 CALM      30.33R
ATLANTA GA     CLEAR     64  52  64 E5        30.28R
NEW ORLEANS LA PTCLDY    72  66  81 CALM      30.15R
OKLAHOMA CITY  CLOUDY    59  57  93 SE9       30.11S
ALBUQUERQUE NM MOCLDY    57  30  35 W5        30.00R
SALT LAKE CITY LGT RAIN  53  47  79 E6        29.92R
LOS ANGELES CA PTCLDY    58  54  86 W10       30.06S
BOISE ID       PTCLDY    57  51  80 CALM      29.88R
SEATTLE WA     CLOUDY    54  48  80 S7        30.10S
$$

*** WEATHER ACROSS MANITOBA...SASKATCHEWAN AND ONTARIO ***
                ***ONTARIO***

CITY           SKY/WX    TMP DP  RH WIND       PRES   REMARKS
GERALDTON      CLOUDY    43  27  52 S5        30.00F
THUNDER BAY    PTCLDY    36  30  80 NW6       30.10R
SIOUX LOOKOUT  PTCLDY    59  39  47 W6        30.03R
TORONTO        CLEAR     36  27  69 W5        30.36R
BIG TROUT LK   CLOUDY    46  36  66 N6        29.88S
PICKLE LAKE    NOT AVBL
DRYDEN         MOCLDY    57  41  54 W12       30.06R
KENORA         PTCLDY    57  39  51 W7        30.09R
$$
                *** MANITOBA***

CITY           SKY/WX    TMP DP  RH WIND       PRES   REMARKS
BRANDON        CLEAR     45  36  70 W7        30.10S
DAUPHIN        CLEAR     54  36  50 W6        30.04S
ISLAND LAKE      N/A     48  39  71 NE2       30.01R
PILOT MOUND      N/A     43  36  75 S6          N/A
THE PAS        PTCLDY    48  36  61 N2        29.96R
THOMPSON       MOCLDY    37  34  87 NE10      30.10R
WINNIPEG       PTCLDY    63  34  34 SW12      30.08S
LYNN LAKE      CLEAR     37  32  81 NE9       30.16R
CHURCHILL      PTCLDY    30  28  93 N12       30.16R WCI  21
GILLAM         CLOUDY    32  28  86 NE12G17   30.13R WCI  23
$$
                ***SASKATCHEWAN***

CITY           SKY/WX    TMP DP  RH WIND       PRES   REMARKS
ESTEVAN        MOCLDY    54  41  62 S7        30.11R
KINDERSLEY     CLEAR     50  27  40 S5        30.07R
LLOYDMINSTER   CLEAR     54  27  35 S5        30.05S
PRINCE ALBERT  PTCLDY    45  39  81 CALM      30.03R
REGINA         PTCLDY    48  37  66 E9        30.09R


USA.gov is the U.S. government's official web portal to all federal, state and local government web resources and services.